Gaylord, MI

1:01 AM EST on February 21, 2017 (GMT -0500)
Otsego County

Weather History for KGLR - May, 2013

Change the Weather History Date:

Friday, May 24, 2013

  Actual Average Record
Temperature  
Mean Temperature 43 °F -  
Max Temperature 54 °F 71 °F 89 °F (1972)
Min Temperature 32 °F 44 °F 19 °F (1956)
Degree Days  
Heating Degree Days 22    
Moisture  
Dew Point 30 °F    
Average Humidity 64    
Maximum Humidity 89    
Minimum Humidity 41    
Precipitation  
Precipitation 0.00 in - - ()
Sea Level Pressure  
Sea Level Pressure 30.34 in    
Wind  
Wind Speed 4 mph (North)    
Max Wind Speed 9 mph    
Max Gust Speed 17 mph    
Visibility 10 miles    
Events      
Averages and records for this station are not official NWS values.
T = Trace of Precipitation, MM = Missing Value Source: NWS Daily Summary

Daily Weather History Graph

Daily Weather History Graph

Search for Another Location

Airport or City:

Trip Planner

Search our weather history database for the weather conditions in past years. The results will help you decide how hot, cold, wet, or windy it might be!

Date:

Astronomy

May. 24, 2013 Rise Set
Actual Time 6:00 AM EDT 9:11 PM EDT
Civil Twilight 5:25 AM EDT 9:46 PM EDT
Nautical Twilight 4:39 AM EDT 10:32 PM EDT
Astronomical Twilight 3:43 AM EDT 11:29 PM EDT
Moon 8:51 PM EDT (5/24) 5:34 AM EDT (5/24)
Length of Visible Light 16h 21m
Length of Day
15h 10m
Full, 100% of the Moon is Illuminated
May 24
Full
May 25
Full
May 31
Last Quarter
Jun 8
New
Jun 16
First Quarter

Hourly Weather History & Observations

Time (EDT) Temp. Windchill Dew Point Humidity Pressure Visibility Wind Dir Wind Speed Gust Speed Precip Events Conditions
12:53 AM 37.0 °F 33.3 °F 30.0 °F 76% 30.26 in 10.0 mi Variable 4.6 mph - N/A   Clear
1:53 AM 36.0 °F 33.3 °F 30.9 °F 82% 30.27 in 10.0 mi North 3.5 mph - N/A   Clear
2:53 AM 35.1 °F - 30.9 °F 85% 30.28 in 10.0 mi Calm Calm - N/A   Clear
3:53 AM 33.1 °F - 30.0 °F 89% 30.29 in 10.0 mi Calm Calm - N/A   Clear
4:53 AM 32.0 °F - 28.9 °F 88% 30.30 in 10.0 mi Calm Calm - N/A   Partly Cloudy
5:53 AM 32.0 °F 28.7 °F 28.0 °F 85% 30.32 in 10.0 mi Variable 3.5 mph - N/A   Scattered Clouds
6:06 AM 33.8 °F - 28.4 °F 81% 30.29 in 10.0 mi Calm Calm - N/A   Mostly Cloudy
6:18 AM 32.0 °F - 28.4 °F 87% 30.30 in 10.0 mi Calm Calm - N/A   Scattered Clouds
6:53 AM 33.1 °F 28.7 °F 28.0 °F 82% 30.34 in 10.0 mi Variable 4.6 mph - N/A   Clear
7:53 AM 36.0 °F 29.6 °F 28.0 °F 73% 30.36 in 10.0 mi NNE 8.1 mph - N/A   Clear
8:53 AM 37.9 °F 31.5 °F 27.0 °F 65% 30.38 in 10.0 mi North 9.2 mph 17.3 mph N/A   Scattered Clouds
9:02 AM 37.4 °F 32.1 °F 26.6 °F 65% 30.35 in 10.0 mi North 6.9 mph - N/A   Mostly Cloudy
9:26 AM 39.2 °F 35.0 °F 28.4 °F 65% 30.35 in 10.0 mi Variable 5.8 mph - N/A   Scattered Clouds
9:53 AM 39.0 °F 33.4 °F 28.0 °F 65% 30.40 in 10.0 mi North 8.1 mph - N/A   Clear
10:53 AM 42.1 °F 39.2 °F 28.9 °F 60% 30.39 in 10.0 mi Variable 4.6 mph - N/A   Clear
11:53 AM 46.0 °F 43.1 °F 30.0 °F 54% 30.38 in 10.0 mi Variable 5.8 mph - N/A   Clear
12:53 PM 48.0 °F - 28.0 °F 46% 30.38 in 10.0 mi Variable 4.6 mph - N/A   Clear
1:53 PM 51.1 °F - 28.0 °F 41% 30.38 in 10.0 mi Variable 6.9 mph - N/A   Clear
2:53 PM 54.0 °F - 32.0 °F 43% 30.38 in 10.0 mi NNW 8.1 mph - N/A   Clear
3:53 PM 53.1 °F - 32.0 °F 45% 30.37 in 10.0 mi Variable 5.8 mph - N/A   Clear
4:53 PM 53.1 °F - 30.9 °F 43% 30.37 in 10.0 mi Variable 6.9 mph - N/A   Clear
5:53 PM 53.1 °F - 30.0 °F 41% 30.35 in 10.0 mi Variable 3.5 mph - N/A   Clear
6:53 PM 53.1 °F - 30.0 °F 41% 30.35 in 10.0 mi Variable 3.5 mph - N/A   Clear
7:53 PM 51.1 °F - 30.9 °F 46% 30.34 in 10.0 mi Variable 4.6 mph - N/A   Clear
8:53 PM 48.0 °F - 30.9 °F 52% 30.34 in 10.0 mi NW 4.6 mph - N/A   Clear
9:53 PM 45.0 °F - 32.0 °F 60% 30.35 in 10.0 mi Calm Calm - N/A   Clear
10:53 PM 43.0 °F - 32.0 °F 65% 30.38 in 10.0 mi Calm Calm - N/A   Clear
11:53 PM 39.9 °F - 33.1 °F 77% 30.38 in 10.0 mi Calm Calm - N/A   Clear